Kenosha, WI

1:47 AM CDT on August 27, 2016 (GMT -0500)
Kenosha Regional

Weather History for KENW - December, 2013

Change the Weather History Date:

Wednesday, December 11, 2013

  Actual Average Record
Temperature  
Mean Temperature 6 °F -  
Max Temperature 17 °F 35 °F 56 °F (1949)
Min Temperature -6 °F 19 °F -8 °F (1972)
Degree Days  
Heating Degree Days 60    
Moisture  
Dew Point 4 °F    
Average Humidity 72    
Maximum Humidity 84    
Minimum Humidity 52    
Precipitation  
Precipitation 0.00 in - - ()
Sea Level Pressure  
Sea Level Pressure 30.37 in    
Wind  
Wind Speed 8 mph (West)    
Max Wind Speed 16 mph    
Max Gust Speed -    
Visibility 5 miles    
Events Snow    
Averages and records for this station are not official NWS values.
T = Trace of Precipitation, MM = Missing Value Source: NWS Daily Summary

Daily Weather History Graph

Daily Weather History Graph

Search for Another Location

Airport or City:

Trip Planner

Search our weather history database for the weather conditions in past years. The results will help you decide how hot, cold, wet, or windy it might be!

Date:

Astronomy

Dec. 11, 2013 Rise Set
Actual Time 7:11 AM CST 4:18 PM CST
Civil Twilight 6:39 AM CST 4:50 PM CST
Nautical Twilight 6:04 AM CST 5:25 PM CST
Astronomical Twilight 5:30 AM CST 6:00 PM CST
Moon 12:57 PM CST (12/11) 1:26 AM CST (12/11)
Length of Visible Light 10h 10m
Length of Day
9h 06m
Waxing Gibbous, 72% of the Moon is Illuminated
Dec 11
Waxing Gibbous
Dec 17
Full
Dec 25
Last Quarter
Jan 1
New
Jan 7
First Quarter

Hourly Weather History & Observations

Time (CST) Temp. Windchill Dew Point Humidity Pressure Visibility Wind Dir Wind Speed Gust Speed Precip Events Conditions
12:53 AM 14.0 °F 0.5 °F 5.0 °F 67% 30.29 in 10.0 mi WSW 11.5 mph - N/A   Overcast
1:53 AM 14.0 °F 1.2 °F 8.1 °F 77% 30.30 in 6.0 mi WSW 10.4 mph - 0.00 in Snow Light Snow
2:53 AM 15.1 °F 5.2 °F 9.0 °F 77% 30.30 in 3.0 mi WSW 6.9 mph - 0.00 in Snow Light Snow
3:00 AM 15.1 °F 5.2 °F 9.0 °F 77% 30.26 in 2.0 mi WSW 6.9 mph - 0.00 in Snow Light Snow
3:09 AM 15.1 °F 5.2 °F 9.0 °F 77% 30.26 in 1.2 mi West 6.9 mph - 0.00 in Snow Light Snow
3:29 AM 15.1 °F 7.7 °F 9.0 °F 77% 30.25 in 1.5 mi WSW 4.6 mph - 0.00 in Snow Light Snow
3:41 AM 15.1 °F 7.7 °F 10.0 °F 80% 30.24 in 1.5 mi WSW 4.6 mph - 0.00 in Snow Light Snow
3:53 AM 14.0 °F 8.2 °F 10.0 °F 84% 30.29 in 2.0 mi WSW 3.5 mph - 0.00 in Snow Light Snow
4:14 AM 14.0 °F 8.2 °F 10.0 °F 84% 30.24 in 1.8 mi West 3.5 mph - 0.00 in Snow Light Snow
4:23 AM 15.1 °F 7.7 °F 10.0 °F 80% 30.24 in 2.0 mi West 4.6 mph - 0.00 in Snow Light Snow
4:32 AM 15.1 °F 7.7 °F 10.0 °F 80% 30.24 in 1.8 mi West 4.6 mph - 0.00 in Snow Light Snow
4:53 AM 15.1 °F 6.4 °F 10.0 °F 80% 30.30 in 1.8 mi West 5.8 mph - 0.00 in Snow Light Snow
5:04 AM 15.1 °F 6.4 °F 10.0 °F 80% 30.25 in 2.0 mi West 5.8 mph - 0.00 in Snow Light Snow
5:24 AM 15.1 °F 6.4 °F 10.0 °F 80% 30.26 in 1.8 mi West 5.8 mph - 0.00 in Snow Light Snow
5:51 AM 15.8 °F 8.6 °F 10.4 °F 79% 30.27 in 2.0 mi West 4.6 mph - 0.00 in Snow Light Snow
5:53 AM 15.1 °F 6.4 °F 10.0 °F 80% 30.32 in 2.5 mi West 5.8 mph - 0.00 in Snow Light Snow
6:10 AM 15.1 °F 6.4 °F 10.0 °F 80% 30.28 in 1.8 mi West 5.8 mph - 0.00 in Snow Light Snow
6:38 AM 15.1 °F 5.2 °F 10.0 °F 80% 30.29 in 2.5 mi West 6.9 mph - 0.00 in Snow Light Snow
6:53 AM 15.1 °F 6.4 °F 10.0 °F 80% 30.35 in 2.5 mi West 5.8 mph - 0.00 in   Haze
7:21 AM 15.1 °F 6.4 °F 10.0 °F 80% 30.31 in 2.5 mi West 5.8 mph - N/A   Haze
7:53 AM 15.1 °F 6.4 °F 10.0 °F 80% 30.37 in 3.0 mi West 5.8 mph - 0.00 in   Haze
7:56 AM 15.1 °F 6.4 °F 10.0 °F 80% 30.32 in 3.0 mi West 5.8 mph - N/A Snow Light Snow
8:43 AM 16.0 °F 6.3 °F 10.0 °F 77% 30.34 in 1.8 mi WNW 6.9 mph - 0.00 in Snow Light Snow
8:44 AM 16.0 °F 5.3 °F 10.0 °F 77% 30.34 in 2.5 mi WNW 8.1 mph - 0.00 in Snow Light Snow
8:53 AM 16.0 °F 6.3 °F 10.0 °F 77% 30.39 in 2.5 mi WNW 6.9 mph - 0.00 in Snow Light Snow
9:06 AM 17.1 °F 5.8 °F 10.0 °F 74% 30.35 in 3.0 mi WNW 9.2 mph - 0.00 in   Haze
9:33 AM 17.1 °F 5.8 °F 10.0 °F 74% 30.36 in 2.5 mi NW 9.2 mph - 0.00 in Snow Light Snow
9:53 AM 17.1 °F 3.6 °F 9.0 °F 71% 30.41 in 1.8 mi NNW 12.7 mph - 0.00 in Snow Light Snow
10:02 AM 17.1 °F 3.6 °F 8.1 °F 68% 30.37 in 3.0 mi NNW 12.7 mph - 0.00 in Snow Light Snow
10:15 AM 16.0 °F 1.1 °F 6.1 °F 65% 30.37 in 9.0 mi NNW 15.0 mph - 0.00 in   Scattered Clouds
10:53 AM 15.1 °F 0.5 °F 5.0 °F 64% 30.43 in 9.0 mi NNW 13.8 mph - 0.00 in   Mostly Cloudy
11:08 AM 15.1 °F 0.5 °F 3.9 °F 61% 30.38 in 10.0 mi NW 13.8 mph - N/A   Mostly Cloudy
11:53 AM 12.9 °F -3.4 °F 1.0 °F 59% 30.43 in 10.0 mi NNW 16.1 mph - N/A   Mostly Cloudy
12:53 PM 12.0 °F -2.7 °F -2.0 °F 53% 30.44 in 10.0 mi NW 12.7 mph - N/A   Clear
1:53 PM 10.9 °F -4.1 °F -2.9 °F 54% 30.46 in 10.0 mi NW 12.7 mph - N/A   Clear
2:53 PM 10.0 °F -4.5 °F -4.0 °F 53% 30.47 in 10.0 mi NW 11.5 mph - N/A   Clear
3:53 PM 8.1 °F -3.2 °F -4.0 °F 58% 30.49 in 10.0 mi WNW 6.9 mph - N/A   Clear
4:53 PM 5.0 °F -8.1 °F -9.0 °F 52% 30.53 in 10.0 mi WNW 8.1 mph - N/A   Clear
5:53 PM -0.0 °F -11.6 °F -9.9 °F 63% 30.54 in 10.0 mi West 5.8 mph - N/A   Clear
6:53 PM -5.1 °F -20.4 °F -13.0 °F 69% 30.56 in 10.0 mi West 8.1 mph - N/A   Clear
7:53 PM -2.0 °F -13.9 °F -9.9 °F 69% 30.56 in 10.0 mi West 5.8 mph - N/A   Clear
8:53 PM -5.1 °F -17.6 °F -13.0 °F 69% 30.56 in 10.0 mi West 5.8 mph - N/A   Clear
9:53 PM -6.0 °F -20.1 °F -13.0 °F 72% 30.55 in 10.0 mi West 6.9 mph - N/A   Clear
10:53 PM -2.9 °F -19.8 °F -11.0 °F 68% 30.56 in 10.0 mi West 10.4 mph - N/A   Clear
11:53 PM -0.9 °F -17.4 °F -9.9 °F 66% 30.56 in 10.0 mi West 10.4 mph - N/A   Clear